1536091200.42,8733,18.81,73948.0,3.85,3.37,3.37,0,*4C
1536091201.66,8734,18.81,73944.5,3.83,3.37,3.37,0,*4D
1536091202.9,8735,18.81,73948.0,3.83,3.37,3.37,0,*4C
1536091204.12,8736,18.81,73944.8,3.85,3.37,3.37,0,*49
1536091205.34,8737,18.81,73946.0,3.85,3.41,3.37,0,*49
1536091206.56,8738,18.81,73944.3,3.85,3.37,3.37,0,*47
1536091207.8,8739,18.81,73946.3,3.83,3.37,3.37,0,*40
1536091209.03,8740,18.81,73946.5,3.83,3.29,3.37,0,*41
1536091210.22,8741,18.81,73946.3,3.85,3.29,3.37,0,*46
1536091211.44,8742,18.81,73946.5,3.83,3.29,3.37,0,*43
1536091212.61,8743,18.81,73946.8,3.85,3.25,3.29,0,*47
1536091213.81,8744,18.81,73946.8,3.83,3.29,3.29,0,*4A
1536091215.0,8745,18.81,73944.8,3.85,3.37,3.29,0,*42
1536091216.21,8746,18.81,73944.3,3.85,3.29,3.41,0,*40
1536091217.42,8747,18.81,73948.3,3.85,3.37,3.37,0,*4F
1536091218.65,8748,18.81,73948.0,3.85,3.37,3.41,0,*41
1536091219.87,8749,18.81,73946.3,3.85,3.41,3.37,0,*40
1536091221.09,8750,18.81,73946.5,3.85,3.37,3.37,0,*49
1536091222.31,8751,18.81,73950.5,3.85,3.37,3.37,0,*48
1536091223.53,8752,18.81,73948.5,3.83,3.29,3.37,0,*42
1536091224.7,8753,18.81,73950.0,3.85,3.25,3.25,0,*4A
1536091225.9,8754,18.81,73950.3,3.85,3.29,3.37,0,*42
1536091227.07,8755,18.81,73946.3,3.85,3.29,3.25,0,*40
1536091228.29,8756,18.81,73946.0,3.85,3.37,3.37,0,*4F
1536091229.48,8757,18.81,73944.8,3.85,3.37,3.25,0,*4D
1536091230.68,8758,18.81,73944.0,3.83,3.29,3.25,0,*4B
1536091231.87,8759,18.81,73942.0,3.83,3.29,3.29,0,*46
1536091233.07,8760,18.81,73948.0,3.83,3.29,3.25,0,*40
1536091234.24,8761,18.81,73950.3,3.85,3.25,3.25,0,*4B
1536091235.44,8762,18.81,73950.3,3.83,3.25,3.25,0,*4E
1536091236.63,8763,18.81,73948.5,3.85,3.19,3.29,0,*4A
1536091237.82,8764,18.81,73944.0,3.83,3.25,3.25,0,*48
1536091239.0,8765,18.81,73946.8,3.85,3.25,3.29,0,*43
1536091240.17,8766,18.81,73948.0,3.85,3.29,3.29,0,*4C
1536091241.36,8767,18.81,73946.3,3.83,3.25,3.25,0,*4B
1536091242.56,8768,18.81,73944.5,3.83,3.25,3.29,0,*48
1536091243.78,8769,18.81,73944.8,3.83,3.37,3.29,0,*4A
1536091244.95,8770,18.81,73948.0,3.85,3.29,3.25,0,*47
1536091246.15,8771,18.81,73942.8,3.83,3.25,3.29,0,*40
1536091247.34,8772,18.81,73946.0,3.83,3.25,3.29,0,*43
1536091248.54,8773,18.81,73948.0,3.83,3.25,3.25,0,*4E
1536091249.73,8774,18.81,73948.0,3.83,3.29,3.25,0,*45
1536091250.93,8775,18.81,73944.8,3.83,3.25,3.29,0,*44
1536091252.1,8776,18.81,73946.5,3.85,3.25,3.25,0,*4D
1536091253.27,8777,18.81,73944.8,3.85,3.25,3.25,0,*4C
1536091254.46,8778,18.88,73948.5,3.85,3.19,3.25,0,*4C
1536091255.68,8779,18.81,73946.0,3.83,3.29,3.19,0,*47
1536091256.89,8780,18.81,73946.5,3.83,3.19,3.25,0,*4D
1536091258.14,8781,18.81,73950.3,3.83,3.15,3.19,0,*4F
1536091259.36,8782,18.81,73946.3,3.85,3.19,3.15,0,*4A
1536091260.59,8783,18.81,73944.0,3.85,3.15,3.15,0,*47
1536091261.81,8784,18.81,73948.0,3.85,3.19,3.15,0,*4C
1536091263.06,8785,18.81,73946.3,3.83,3.15,3.15,0,*47
1536091264.31,8786,18.81,73946.3,3.83,3.15,3.15,0,*44
1536091265.57,8787,18.81,73948.8,3.83,3.15,3.15,0,*45
1536091266.82,8788,18.81,73944.3,3.83,3.15,3.15,0,*4A
1536091268.05,8789,18.81,73944.0,3.85,3.15,3.15,0,*4D
1536091269.3,8790,18.81,73944.8,3.83,3.15,3.15,0,*43
1536091270.55,8791,18.81,73944.5,3.83,3.03,3.15,0,*45
1536091271.8,8792,18.81,73948.0,3.83,3.11,3.03,0,*42
1536091273.05,8793,18.81,73946.8,3.83,3.03,3.07,0,*44
1536091274.24,8794,18.81,73944.5,3.81,2.99,3.07,0,*43
1536091275.47,8795,18.81,73946.3,3.81,3.07,3.07,0,*44
1536091276.69,8796,18.81,73948.0,3.81,3.07,3.07,0,*47
1536091277.86,8797,18.81,73948.5,3.81,2.99,2.99,0,*46
1536091279.03,8798,18.81,73948.5,3.81,2.99,2.99,0,*49
1536091280.23,8799,18.81,73944.3,3.79,2.95,2.95,0,*4F
1536091281.42,8800,18.81,73948.3,3.81,3.07,2.95,0,*4D
1536091282.68,8801,18.81,73944.8,3.79,3.03,3.03,0,*41
1536091283.87,8802,18.81,73950.5,3.79,2.95,2.95,0,*42
1536091285.1,8803,18.81,73946.8,3.81,3.07,3.07,0,*44
1536091286.3,8804,18.81,73944.5,3.81,3.07,2.99,0,*45
1536091287.49,8805,18.81,73946.8,3.79,2.95,2.95,0,*45
1536091288.71,8806,18.81,73946.5,3.79,2.95,3.03,0,*48
1536091289.91,8807,18.81,73944.8,3.81,3.03,2.99,0,*42
1536091291.1,8808,18.81,73946.3,3.79,2.95,2.95,0,*48
1536091292.33,8809,18.81,73946.3,3.77,3.03,3.03,0,*47
1536091293.52,8810,18.81,73946.5,3.77,2.95,3.03,0,*41
1536091294.72,8811,18.81,73946.5,3.77,2.95,3.03,0,*40
1536091295.91,8812,18.81,73946.0,3.79,2.95,2.95,0,*43
1536091297.16,8813,18.81,73944.0,3.79,3.03,3.03,0,*42
1536091298.36,8814,18.81,73944.8,3.77,2.95,3.03,0,*45
1536091299.58,8815,18.81,73946.0,3.79,3.03,2.95,0,*4A
1536091300.78,8816,18.81,73946.3,3.79,2.95,2.95,0,*47
1536091301.97,8817,18.81,73944.8,3.77,3.03,2.95,0,*46
1536091303.17,8818,18.81,73946.5,3.77,3.03,2.91,0,*4D
1536091304.42,8819,18.81,73944.8,3.75,2.89,2.81,0,*4C
1536091305.66,8820,18.81,73946.3,3.75,2.89,2.89,0,*4E
1536091306.85,8821,18.81,73946.5,3.77,2.85,2.95,0,*4C
1536091308.02,8822,18.81,73944.0,3.77,2.95,2.95,0,*4E
1536091309.22,8823,18.81,73946.3,3.77,2.91,3.03,0,*45
1536091310.41,8824,18.81,73944.0,3.75,2.91,2.99,0,*42
1536091311.63,8825,18.81,73944.8,3.75,2.89,2.91,0,*42
1536091312.82,8826,18.81,73944.5,3.75,2.91,2.91,0,*48
1536091314.02,8827,18.81,73944.0,3.75,2.91,2.91,0,*49
1536091315.26,8828,18.81,73944.5,3.75,2.89,2.89,0,*46
1536091316.48,8829,18.81,73946.8,3.75,2.91,2.89,0,*4E
1536091317.7,8830,18.81,73946.3,3.75,2.89,2.91,0,*46
1536091318.94,8831,18.81,73944.8,3.75,2.89,2.89,0,*4E
1536091320.14,8832,18.81,73946.5,3.77,2.95,3.03,0,*41
1536091321.31,8833,18.81,73948.0,3.73,2.99,2.91,0,*42
1536091322.54,8834,18.81,73948.0,3.71,2.95,2.89,0,*42
1536091323.71,8835,18.81,73944.3,3.73,2.99,2.99,0,*4C
1536091324.88,8836,18.81,73940.5,3.73,2.91,2.91,0,*4F
1536091326.05,8837,18.81,73944.5,3.73,2.99,2.99,0,*4E
1536091327.22,8838,18.81,73944.5,3.73,2.99,2.99,0,*41
1536091328.4,8839,18.81,73946.8,3.73,2.91,2.99,0,*48
1536091329.6,8840,18.81,73944.0,3.73,2.91,2.89,0,*47
1536091330.83,8841,18.81,73946.3,3.73,2.89,2.81,0,*47
1536091332.05,8842,18.81,73946.8,3.73,2.81,2.89,0,*44
1536091333.28,8843,18.81,73942.8,3.73,2.81,2.81,0,*4D
1536091334.48,8844,18.81,73944.5,3.73,2.89,2.91,0,*43
1536091335.7,8845,18.81,73944.0,3.73,2.81,2.89,0,*43
1536091336.95,8846,18.81,73944.8,3.71,2.85,2.77,0,*47
1536091338.19,8847,18.81,73944.8,3.71,2.85,2.77,0,*46
1536091339.43,8848,18.81,73946.3,3.71,2.85,2.85,0,*44
1536091340.67,8849,18.81,73944.3,3.71,2.85,2.85,0,*45
1536091341.91,8850,18.81,73944.5,3.71,2.85,2.85,0,*4D
1536091343.16,8851,18.81,73948.8,3.67,2.73,2.81,0,*46
1536091344.41,8852,18.81,73946.3,3.67,2.73,2.69,0,*43
1536091345.65,8853,18.81,73946.8,3.71,2.77,2.73,0,*4A
1536091346.87,8854,18.81,73944.3,3.71,2.73,2.65,0,*4E
1536091348.11,8855,18.81,73942.5,3.71,2.73,2.73,0,*48
1536091349.36,8856,18.81,73946.3,3.67,2.69,2.73,0,*47
1536091350.61,8857,18.81,73948.0,3.67,2.69,2.69,0,*4D
1536091351.85,8858,18.81,73944.5,3.67,2.69,2.69,0,*42
1536091353.1,8859,18.81,73948.0,3.67,2.69,2.69,0,*43
1536091354.3,8860,18.81,73946.5,3.65,2.69,2.61,0,*43
1536091355.55,8861,18.81,73946.8,3.67,2.69,2.69,0,*48
1536091356.74,8862,18.81,73942.8,3.65,2.61,2.69,0,*41
1536091357.99,8863,18.81,73944.5,3.67,2.73,2.69,0,*41
1536091359.19,8864,18.81,73944.0,3.65,2.61,2.69,0,*47
1536091360.41,8865,18.81,73944.3,3.67,2.69,2.61,0,*44
1536091361.62,8866,18.81,73944.0,3.65,2.69,2.61,0,*45
1536091362.82,8867,18.81,73944.8,3.65,2.69,2.61,0,*44
1536091364.03,8868,18.81,73942.8,3.65,2.69,2.61,0,*4B
1536091365.25,8869,18.81,73944.5,3.65,2.69,2.69,0,*42
1536091366.5,8870,18.81,73942.8,3.67,2.69,2.73,0,*43
1536091367.69,8871,18.81,73944.5,3.63,2.69,2.65,0,*41
1536091368.92,8872,18.81,73944.0,3.61,2.69,2.65,0,*40
1536091370.13,8873,18.81,73944.3,3.63,2.69,2.69,0,*4F
1536091371.35,8874,18.81,73942.3,3.65,2.73,2.73,0,*4E
1536091372.55,8875,18.81,73944.3,3.63,2.69,2.65,0,*45
1536091373.75,8876,18.81,73946.3,3.61,2.65,2.65,0,*48
1536091374.97,8877,18.81,73946.0,3.63,2.69,2.77,0,*44
1536091376.17,8878,18.81,73944.0,3.63,2.69,2.65,0,*48
1536091377.37,8879,18.81,73946.5,3.61,2.65,2.65,0,*47
1536091378.57,8880,18.81,73946.5,3.63,2.65,2.59,0,*4C
1536091379.77,8881,18.81,73944.5,3.61,2.65,2.65,0,*40
1536091380.95,8882,18.81,73944.5,3.63,2.65,2.65,0,*41
1536091382.18,8883,18.81,73946.0,3.61,2.59,2.65,0,*4D
1536091383.38,8884,18.81,73946.3,3.63,2.59,2.65,0,*48
1536091384.63,8885,18.81,73944.5,3.61,2.59,2.59,0,*44
1536091385.85,8886,18.81,73942.8,3.61,2.59,2.65,0,*48
1536091387.05,8887,18.81,73942.3,3.61,2.65,2.65,0,*46
1536091388.28,8888,18.81,73940.8,3.61,2.65,2.59,0,*46
1536091389.5,8889,18.81,73946.8,3.61,2.59,2.65,0,*47
1536091390.72,8890,18.81,73942.0,3.59,2.55,2.55,0,*4B
1536091391.9,8891,18.81,73946.5,3.59,2.61,2.61,0,*4A
1536091393.08,8892,18.81,73946.0,3.59,2.61,2.61,0,*49
1536091394.33,8893,18.81,73944.5,3.57,2.51,2.51,0,*46
1536091395.56,8894,18.81,73946.5,3.61,2.65,2.59,0,*4B
1536091396.76,8895,18.81,73944.0,3.59,2.55,2.61,0,*49
1536091397.98,8896,18.81,73946.0,3.59,2.55,2.55,0,*4D
1536091399.18,8897,18.81,73944.0,3.59,2.59,2.61,0,*47
1536091400.44,8898,18.81,73946.3,3.57,2.59,2.59,0,*4D
1536091401.64,8899,18.81,73940.8,3.57,2.61,2.61,0,*4C
1536091402.82,8900,18.81,73940.5,3.59,2.65,2.65,0,*43
1536091404.07,8901,18.81,73940.0,3.57,2.69,2.73,0,*47
1536091405.32,8902,18.81,73942.3,3.57,2.69,2.73,0,*44
1536091406.55,8903,18.81,73946.8,3.57,2.69,2.61,0,*46
1536091407.76,8904,18.81,73944.5,3.57,2.61,2.61,0,*49
1536091409.0,8905,18.81,73942.8,3.57,2.69,2.69,0,*48
1536091410.23,8906,18.81,73946.0,3.57,2.73,2.61,0,*48
1536091411.48,8907,18.81,73944.0,3.57,2.73,2.73,0,*4A
1536091412.72,8908,18.81,73942.3,3.57,2.69,2.69,0,*45
1536091413.97,8909,18.81,73946.5,3.57,2.69,2.69,0,*44
1536091415.16,8910,18.81,73944.5,3.59,2.73,2.65,0,*45
1536091416.41,8911,18.81,73946.0,3.57,2.69,2.69,0,*4D
1536091417.66,8912,18.81,73944.0,3.57,2.69,2.69,0,*4E
1536091418.9,8913,18.81,73944.0,3.57,2.69,2.69,0,*4F
1536091420.16,8914,18.81,73944.0,3.57,2.69,2.81,0,*4E
1536091421.4,8915,18.81,73946.8,3.57,2.73,2.73,0,*49
1536091422.62,8916,18.81,73942.8,3.59,2.73,2.77,0,*40
1536091423.86,8917,18.81,73940.5,3.57,2.69,2.69,0,*4B
1536091425.07,8918,18.81,73942.3,3.57,2.61,2.61,0,*44
1536091426.32,8919,18.81,73946.5,3.57,2.69,2.69,0,*45
1536091427.54,8920,18.81,73942.3,3.57,2.61,2.69,0,*47
1536091428.77,8921,18.81,73946.5,3.57,2.69,2.61,0,*46
1536091429.98,8922,18.81,73940.8,3.57,2.61,2.61,0,*4D
1536091431.19,8923,18.81,73942.8,3.57,2.61,2.61,0,*4C
1536091432.39,8924,18.81,73942.5,3.57,2.61,2.61,0,*4B
1536091433.57,8925,18.81,73944.0,3.55,2.61,2.61,0,*48
1536091434.79,8926,18.81,73942.3,3.55,2.69,2.69,0,*4B
1536091435.99,8927,18.81,73942.8,3.55,2.61,2.69,0,*42
1536091437.21,8928,18.81,73942.5,3.55,2.69,2.69,0,*45
1536091438.41,8929,18.81,73940.5,3.55,2.61,2.69,0,*4C
1536091439.59,8930,18.81,73942.5,3.55,2.61,2.61,0,*4C
1536091440.79,8931,18.81,73944.5,3.55,2.61,2.59,0,*46
1536091442.04,8932,18.81,73942.8,3.53,2.59,2.59,0,*48
1536091443.27,8933,18.81,73942.8,3.53,2.65,2.59,0,*46
1536091444.49,8934,18.81,73946.0,3.55,2.69,2.69,0,*48
1536091445.69,8935,18.81,73946.5,3.55,2.61,2.69,0,*41
1536091446.89,8936,18.81,73944.0,3.55,2.61,2.59,0,*41
1536091448.07,8937,18.81,73940.0,3.55,2.61,2.61,0,*4B
1536091449.25,8938,18.81,73944.5,3.55,2.61,2.61,0,*44
1536091450.45,8939,18.81,73942.5,3.55,2.69,2.61,0,*4D
1536091451.68,8940,18.81,73944.3,3.53,2.59,2.65,0,*42
1536091452.89,8941,18.81,73940.3,3.53,2.65,2.65,0,*4C
1536091454.14,8942,18.81,73940.0,3.53,2.69,2.69,0,*4F
1536091455.39,8943,18.81,73942.3,3.53,2.69,2.77,0,*41
1536091456.62,8944,18.81,73944.0,3.55,2.81,2.81,0,*4F
1536091457.87,8945,18.81,73940.0,3.53,2.69,2.77,0,*47
1536091459.12,8946,18.81,73946.0,3.53,2.69,2.77,0,*44
1536091460.37,8947,18.81,73944.8,3.53,2.69,2.69,0,*4A
1536091461.61,8948,18.81,73940.8,3.53,2.69,2.69,0,*45
1536091462.87,8949,18.81,73942.3,3.53,2.59,2.59,0,*44
1536091464.07,8950,18.81,73944.0,3.53,2.65,2.65,0,*4C
1536091465.32,8951,18.81,73940.8,3.53,2.59,2.69,0,*4E
1536091466.56,8952,18.81,73942.3,3.53,2.65,2.59,0,*41
1536091467.74,8953,18.81,73942.3,3.55,2.61,2.61,0,*49
1536091468.97,8954,18.81,73944.0,3.53,2.65,2.59,0,*47
1536091470.22,8955,18.81,73940.0,3.53,2.59,2.59,0,*49
1536091471.48,8956,18.81,73942.3,3.53,2.59,2.59,0,*4A
1536091472.73,8957,18.81,73940.5,3.53,2.59,2.59,0,*4B
1536091473.98,8958,18.81,73946.3,3.53,2.59,2.55,0,*48
1536091475.23,8959,18.81,73940.5,3.53,2.59,2.55,0,*49
1536091476.49,8960,18.81,73940.8,3.53,2.59,2.59,0,*4F
1536091477.74,8961,18.81,73944.0,3.53,2.59,2.59,0,*4E
1536091478.97,8962,18.81,73946.0,3.53,2.65,2.59,0,*42
1536091480.2,8963,18.81,73942.5,3.53,2.59,2.65,0,*43
1536091481.43,8964,18.81,73944.5,3.51,2.55,2.59,0,*45
1536091482.65,8965,18.81,73942.8,3.51,2.55,2.55,0,*48
1536091483.85,8966,18.81,73942.3,3.51,2.65,2.59,0,*44
1536091485.06,8967,18.81,73942.5,3.51,2.59,2.65,0,*45
1536091486.24,8968,18.81,73942.8,3.51,2.65,2.65,0,*45
1536091487.46,8969,18.81,73940.0,3.51,2.59,2.69,0,*47
1536091488.67,8970,18.81,73942.8,3.49,2.61,2.61,0,*45
1536091489.87,8971,18.81,73942.3,3.51,2.69,2.65,0,*41
1536091491.09,8972,18.81,73940.8,3.51,2.69,2.69,0,*4E
1536091492.31,8973,18.81,73942.5,3.51,2.69,2.69,0,*4F
1536091493.56,8974,18.81,73940.3,3.49,2.73,2.73,0,*41
1536091494.78,8975,18.81,73940.0,3.51,2.77,2.77,0,*49
1536091496.01,8976,18.81,73944.0,3.51,2.77,2.77,0,*4A
1536091497.23,8977,18.81,73942.5,3.51,2.85,2.81,0,*4F
1536091498.46,8978,18.81,73940.5,3.51,2.81,2.81,0,*44
1536091499.72,8979,18.81,73942.8,3.49,2.77,2.77,0,*4C
1536091500.97,8980,18.81,73944.0,3.49,2.77,2.77,0,*4A
1536091502.2,8981,18.81,73944.0,3.51,2.81,2.81,0,*42
1536091503.42,8982,18.81,73942.3,3.51,2.81,2.85,0,*45
1536091504.64,8983,18.81,73944.8,3.51,2.85,2.85,0,*40
1536091505.87,8984,18.81,73942.8,3.51,2.81,2.81,0,*47
1536091507.09,8985,18.81,73944.3,3.51,2.81,2.85,0,*42
1536091508.32,8986,18.81,73942.3,3.51,2.85,2.81,0,*41
1536091509.55,8987,18.81,73940.0,3.51,2.81,2.81,0,*44
1536091510.81,8988,18.81,73944.3,3.53,2.81,2.81,0,*49
1536091512.03,8989,18.81,73940.8,3.51,2.77,2.77,0,*4A
1536091513.26,8990,18.81,73942.5,3.51,2.77,2.77,0,*42
1536091514.51,8991,18.81,73938.8,3.53,2.77,2.77,0,*41
1536091515.76,8992,18.81,73942.5,3.53,2.77,2.77,0,*42
1536091517.01,8993,18.81,73942.3,3.53,2.69,2.77,0,*4C
1536091518.25,8994,18.81,73940.5,3.53,2.77,2.69,0,*4B
1536091519.5,8995,18.81,73942.3,3.53,2.77,2.69,0,*4A
1536091520.75,8996,18.81,73940.3,3.53,2.69,2.69,0,*46
1536091521.99,8997,18.81,73944.8,3.53,2.69,2.69,0,*47
1536091523.24,8998,18.81,73940.8,3.53,2.69,2.77,0,*47
1536091524.42,8999,18.81,73944.0,3.51,2.65,2.65,0,*4B
1536091525.61,9000,18.81,73944.0,3.51,2.65,2.65,0,*43
1536091526.82,9001,18.81,73940.0,3.49,2.65,2.65,0,*4B
1536091528.04,9002,18.81,73940.0,3.51,2.69,2.69,0,*41
1536091529.26,9003,18.81,73940.8,3.51,2.77,2.69,0,*4F
1536091530.48,9004,18.81,73944.3,3.51,2.77,2.69,0,*48
1536091531.7,9005,18.81,73940.3,3.51,2.77,2.77,0,*46
1536091532.92,9006,18.81,73940.0,3.51,2.77,2.77,0,*45
1536091534.15,9007,18.81,73944.5,3.51,2.77,2.77,0,*44
1536091535.37,9008,18.81,73944.0,3.51,2.69,2.69,0,*4B
1536091536.58,9009,18.81,73940.0,3.49,2.65,2.65,0,*43
1536091537.8,9010,18.81,73940.0,3.51,2.77,2.77,0,*42
1536091539.05,9011,18.81,73940.5,3.49,2.73,2.73,0,*4A
1536091540.3,9012,18.81,73942.8,3.53,2.77,2.81,0,*4B
1536091541.56,9013,18.81,73940.0,3.53,2.77,2.81,0,*4A
1536091542.78,9014,18.81,73940.3,3.51,2.77,2.77,0,*46
1536091544.0,9015,18.81,73942.5,3.51,2.69,2.69,0,*47
1536091545.21,9016,18.81,73944.8,3.49,2.65,2.65,0,*4D
1536091546.43,9017,18.81,73940.8,3.51,2.69,2.77,0,*4A
1536091547.65,9018,18.81,73942.8,3.51,2.69,2.69,0,*4A
1536091548.83,9019,18.81,73942.5,3.51,2.65,2.65,0,*4B
1536091550.02,9020,18.81,73940.5,3.51,2.65,2.65,0,*41
1536091551.22,9021,18.81,73940.8,3.49,2.61,2.61,0,*49
1536091552.42,9022,18.81,73944.5,3.51,2.65,2.69,0,*4F
1536091553.63,9023,18.81,73942.3,3.51,2.69,2.65,0,*4E
1536091554.81,9024,18.81,73940.5,3.51,2.65,2.65,0,*45
1536091556.04,9025,18.81,73940.8,3.49,2.55,2.61,0,*4A
1536091557.22,9026,18.81,73936.8,3.51,2.65,2.65,0,*47
1536091558.43,9027,18.81,73944.5,3.49,2.65,2.65,0,*4F
1536091559.63,9028,18.81,73942.5,3.49,2.61,2.65,0,*44
1536091560.88,9029,18.81,73940.5,3.49,2.73,2.73,0,*41
1536091562.1,9030,18.81,73942.0,3.51,2.69,2.69,0,*40
1536091563.31,9031,18.81,73942.5,3.49,2.65,2.65,0,*48
1536091564.53,9032,18.81,73942.0,3.51,2.69,2.69,0,*42
1536091565.76,9033,18.81,73938.8,3.49,2.55,2.61,0,*4D
1536091566.97,9034,18.81,73940.5,3.49,2.61,2.61,0,*4D
1536091568.18,9035,18.81,73936.3,3.49,2.61,2.61,0,*4C
1536091569.39,9036,18.81,73940.3,3.49,2.61,2.61,0,*4F
1536091570.61,9037,18.81,73942.3,3.51,2.59,2.59,0,*47
1536091571.86,9038,18.81,73940.8,3.49,2.55,2.55,0,*41
1536091573.09,9039,18.81,73942.3,3.49,2.61,2.55,0,*47
1536091574.31,9040,18.81,73942.8,3.49,2.61,2.55,0,*49
1536091575.56,9041,18.81,73942.5,3.49,2.55,2.55,0,*4F
1536091576.81,9042,18.81,73940.5,3.49,2.55,2.55,0,*4C
1536091578.06,9043,18.81,73940.8,3.49,2.51,2.55,0,*49
1536091579.31,9044,18.81,73940.5,3.49,2.51,2.55,0,*4E
1536091580.56,9045,18.81,73940.8,3.49,2.51,2.55,0,*4F
1536091581.77,9046,18.81,73942.5,3.49,2.65,2.61,0,*4C
1536091583.0,9047,18.81,73940.8,3.45,2.69,2.61,0,*4D
1536091584.21,9048,18.81,73940.8,3.45,2.61,2.61,0,*4A
1536091585.43,9049,18.81,73942.3,3.43,2.51,2.59,0,*45
1536091586.66,9050,18.81,73944.5,3.43,2.51,2.51,0,*45
1536091587.91,9051,18.81,73938.3,3.45,2.59,2.59,0,*42
1536091589.14,9052,18.81,73940.0,3.45,2.69,2.61,0,*49
1536091590.36,9053,18.81,73940.0,3.43,2.69,2.69,0,*46
1536091591.58,9054,18.81,73940.5,3.45,2.61,2.69,0,*4F
1536091592.8,9055,18.81,73938.8,3.45,2.69,2.61,0,*4E
1536091594.05,9056,18.81,73940.3,3.45,2.69,2.69,0,*45
1536091595.29,9057,18.81,73940.0,3.45,2.69,2.69,0,*44
1536091596.47,9058,18.81,73942.5,3.43,2.61,2.61,0,*4D
1536091597.72,9059,18.81,73938.8,3.45,2.59,2.51,0,*42
1536091598.98,9060,18.81,73942.3,3.45,2.51,2.59,0,*48
1536091600.23,9061,18.81,73942.3,3.45,2.51,2.51,0,*41
1536091601.45,9062,18.81,73942.8,3.43,2.59,2.47,0,*4B
1536091602.71,9063,18.81,73940.8,3.45,2.59,2.59,0,*43
1536091603.93,9064,18.81,73936.8,3.43,2.51,2.59,0,*4A
1536091605.18,9065,18.81,73938.8,3.45,2.51,2.59,0,*4D
1536091606.44,9066,18.81,73940.8,3.45,2.47,2.51,0,*41
1536091607.7,9067,18.81,73940.3,3.45,2.51,2.51,0,*47
1536091608.95,9068,18.81,73938.8,3.45,2.51,2.59,0,*40
1536091610.2,9069,18.81,73942.5,3.45,2.59,2.59,0,*49
1536091611.43,9070,18.81,73940.3,3.43,2.51,2.51,0,*47
1536091612.66,9071,18.81,73942.3,3.43,2.47,2.51,0,*41
1536091613.89,9072,18.81,73938.8,3.43,2.47,2.51,0,*42
1536091615.11,9073,18.81,73940.5,3.43,2.47,2.47,0,*44
1536091616.34,9074,18.81,73940.0,3.43,2.51,2.51,0,*43
1536091617.57,9075,18.81,73936.8,3.43,2.51,2.51,0,*42
1536091618.79,9076,18.81,73940.5,3.43,2.59,2.47,0,*4E
1536091620.02,9077,18.81,73942.5,3.41,2.43,2.35,0,*43
1536091621.28,9078,18.81,73942.8,3.41,2.43,2.43,0,*4D
1536091622.5,9079,18.81,73942.3,3.41,2.47,2.35,0,*49
1536091623.73,9080,18.81,73936.3,3.41,2.43,2.35,0,*4B
1536091624.95,9081,18.81,73936.8,3.39,2.43,2.43,0,*44
1536091626.18,9082,18.81,73940.0,3.41,2.35,2.43,0,*49
1536091627.38,9083,18.81,73942.0,3.39,2.47,2.35,0,*43
1536091628.63,9084,18.81,73938.8,3.41,2.47,2.55,0,*4D
1536091629.88,9085,18.81,73936.8,3.41,2.47,2.47,0,*4F
1536091631.14,9086,18.81,73940.0,3.41,2.47,2.43,0,*48
1536091632.36,9087,18.81,73940.8,3.39,2.43,2.43,0,*42
1536091633.59,9088,18.81,73940.8,3.39,2.47,2.47,0,*4D
1536091634.81,9089,18.81,73940.0,3.39,2.43,2.47,0,*48
1536091636.01,9090,18.81,73940.3,3.41,2.35,2.35,0,*4B
1536091637.2,9091,18.81,73940.8,3.39,2.43,2.35,0,*44
1536091638.43,9092,18.81,73936.0,3.39,2.43,2.43,0,*46
1536091639.66,9093,18.81,73940.3,3.39,2.43,2.43,0,*47
1536091640.88,9094,18.81,73940.0,3.39,2.43,2.43,0,*40
1536091642.11,9095,18.81,73942.0,3.41,2.35,2.43,0,*4F
1536091643.31,9096,18.81,73940.8,3.39,2.35,2.43,0,*43
1536091644.53,9097,18.81,73942.3,3.39,2.43,2.43,0,*43
1536091645.75,9098,18.81,73938.8,3.39,2.47,2.55,0,*4F
1536091647.01,9099,18.81,73940.8,3.37,2.43,2.43,0,*43
1536091648.26,9100,18.81,73940.8,3.37,2.43,2.43,0,*42
1536091649.51,9101,18.81,73942.5,3.37,2.43,2.43,0,*43
1536091650.73,9102,18.81,73940.0,3.39,2.47,2.47,0,*4E
1536091651.96,9103,18.81,73942.0,3.39,2.47,2.47,0,*4F
1536091653.18,9104,18.81,73936.8,3.37,2.39,2.31,0,*4E
1536091654.43,9105,18.81,73940.0,3.37,2.39,2.39,0,*47
1536091655.66,9106,18.81,73940.3,3.35,2.43,2.39,0,*4B
1536091656.83,9107,18.81,73940.0,3.35,2.31,2.31,0,*47
1536091658.02,9108,18.81,73940.8,3.37,2.31,2.31,0,*4A
1536091659.22,9109,18.81,73942.3,3.37,2.31,2.31,0,*4B
1536091660.41,9110,18.81,73940.3,3.37,2.31,2.31,0,*43
1536091661.58,9111,18.75,73936.0,3.35,2.31,2.31,0,*40
1536091662.76,9112,18.81,73938.8,3.35,2.31,2.27,0,*44
1536091663.93,9113,18.81,73942.5,3.35,2.27,2.27,0,*42
1536091665.13,9114,18.81,73940.3,3.37,2.27,2.31,0,*40
1536091666.3,9115,18.81,73940.3,3.35,2.31,2.27,0,*43
1536091667.47,9116,18.75,73938.3,3.35,2.31,2.27,0,*40
1536091668.65,9117,18.81,73942.0,3.35,2.31,2.31,0,*46
1536091669.85,9118,18.81,73936.5,3.33,2.27,2.27,0,*4F
1536091671.04,9119,18.81,73940.8,3.37,2.31,2.31,0,*4A
1536091672.27,9120,18.81,73942.0,3.35,2.39,2.39,0,*42
1536091673.44,9121,18.81,73936.0,3.35,2.31,2.31,0,*43
1536091674.61,9122,18.81,73942.3,3.35,2.31,2.31,0,*40
1536091675.84,9123,18.81,73942.3,3.33,2.27,2.25,0,*45
1536091677.09,9124,18.81,73942.0,3.33,2.25,2.25,0,*40
1536091678.32,9125,18.81,73942.3,3.33,2.27,2.25,0,*43
1536091679.52,9126,18.81,73938.5,3.33,2.27,2.35,0,*41
1536091680.75,9127,18.81,73942.3,3.33,2.35,2.17,0,*43
1536091681.99,9128,18.81,73942.5,3.31,2.25,2.13,0,*4B
1536091683.24,9129,18.81,73940.8,3.31,2.25,2.25,0,*4F
1536091684.48,9130,18.81,73936.0,3.31,2.25,2.25,0,*47
1536091685.69,9131,18.75,73938.3,3.31,2.25,2.35,0,*47
1536091686.89,9132,18.81,73938.8,3.33,2.35,2.27,0,*44
1536091688.09,9133,18.81,73940.0,3.33,2.27,2.27,0,*46
1536091689.32,9134,18.81,73938.3,3.33,2.25,2.27,0,*43
1536091690.56,9135,18.81,73942.3,3.31,2.21,2.25,0,*46
1536091691.76,9136,18.81,73940.3,3.33,2.35,2.27,0,*40
1536091692.95,9137,18.81,73942.3,3.29,2.25,2.31,0,*4C
1536091694.14,9138,18.81,73940.0,3.31,2.31,2.35,0,*4B
1536091695.33,9139,18.81,73940.3,3.31,2.31,2.31,0,*4E
1536091696.57,9140,18.81,73936.8,3.31,2.25,2.25,0,*40
1536091697.82,9141,18.81,73942.3,3.31,2.25,2.25,0,*41
1536091699.05,9142,18.81,73938.0,3.27,2.21,2.21,0,*45
1536091700.24,9143,18.75,73938.5,3.29,2.25,2.31,0,*4F
1536091701.47,9144,18.81,73938.5,3.29,2.25,2.25,0,*4D
1536091702.64,9145,18.81,73940.8,3.29,2.31,2.31,0,*4C
1536091703.83,9146,18.81,73940.3,3.29,2.31,2.25,0,*4A
1536091705.06,9147,18.81,73940.8,3.29,2.25,2.25,0,*4E
1536091706.27,9148,18.81,73942.3,3.29,2.21,2.21,0,*41
1536091707.53,9149,18.81,73938.8,3.27,2.17,2.17,0,*4E
1536091708.78,9150,18.81,73940.0,3.27,2.17,2.17,0,*46
1536091709.99,9151,18.75,73938.0,3.27,2.27,2.21,0,*41
1536091711.19,9152,18.81,73940.8,3.27,2.27,2.27,0,*44
1536091712.4,9153,18.75,73936.0,3.27,2.21,2.27,0,*43
1536091713.64,9154,18.81,73942.3,3.27,2.21,2.17,0,*47
1536091714.88,9155,18.81,73942.5,3.27,2.21,2.17,0,*46
1536091716.12,9156,18.81,73942.8,3.27,2.21,2.21,0,*40
1536091717.29,9157,18.75,73936.8,3.29,2.27,2.27,0,*4F
1536091718.5,9158,18.75,73938.0,3.27,2.21,2.27,0,*48
1536091719.7,9159,18.81,73938.5,3.27,2.27,2.27,0,*4F
1536091720.89,9160,18.75,73936.3,3.27,2.27,2.27,0,*45
1536091722.1,9161,18.75,73938.0,3.27,2.21,2.31,0,*45
1536091723.29,9162,18.81,73940.5,3.27,2.27,2.27,0,*47
1536091724.5,9163,18.75,73938.3,3.27,2.21,2.27,0,*40
1536091725.75,9164,18.81,73940.3,3.27,2.17,2.21,0,*44
1536091726.94,9165,18.81,73940.5,3.27,2.27,2.27,0,*40
1536091728.15,9166,18.81,73936.5,3.27,2.21,2.27,0,*45
1536091729.36,9167,18.81,73942.3,3.27,2.21,2.27,0,*44
1536091730.55,9168,18.81,73940.0,3.27,2.27,2.27,0,*4D
1536091731.74,9169,18.81,73940.3,3.25,2.27,2.21,0,*48
1536091732.95,9170,18.81,73942.0,3.25,2.21,2.21,0,*46
1536091734.17,9171,18.81,73938.5,3.25,2.17,2.21,0,*42
1536091735.39,9172,18.75,73936.0,3.25,2.21,2.17,0,*41
1536091736.6,9173,18.81,73938.5,3.25,2.21,2.21,0,*45
1536091737.76,9174,18.81,73942.0,3.25,2.27,2.31,0,*45
1536091738.93,9175,18.81,73940.0,3.21,2.27,2.27,0,*47
1536091740.12,9176,18.75,73938.8,3.25,2.27,2.21,0,*46
1536091741.35,9177,18.81,73938.3,3.21,2.17,2.25,0,*44